Location: Church Tower
(37.7144°N, 119.6316°W)
Time: 19:12:57
(UTC+00:00)

Cosmos 1300 Rocket - Pass Details

Date: 15 November 2025
Orbit: 594 x 620 km, 82.5° (Epoch: 08 December)

Event Time Altitude Azimuth Distance (km) Brightness Sun altitude
Exits shadow 12:28:02 37° 166° (SSE) 927 4.5 -25.9°
Drops below altitude 10° 12:30:39 10° 171° (S) 1,923 6.2 -25.4°
Sets 12:32:50 0° 172° (S) 2,818 7.1 -25.0°
